Location: Unspecified
(38.9820°N, 94.4650°W)
Time: 12:13:16
(UTC-05:00)

Resurs 1-4 Rocket - Visible Passes

Search period start: 24 June 2017 00:00
Search period end: 04 July 2017 00:00
Orbit: 801 x 813 km, 98.5° (Epoch: 23 June)

Date Brightness Start Highest point End Pass type
(mag) Time Alt. Az. Time Alt. Az. Time Alt. Az.
24 Jun 3.5 02:53:11 10° NE 02:57:52 30° E 03:00:04 23° SE visible
24 Jun 3.1 04:32:58 10° N 04:37:37 32° WNW 04:41:09 16° WSW visible
25 Jun 4.1 02:29:31 10° NE 02:33:05 18° E 02:35:12 15° ESE visible
25 Jun 2.4 04:08:03 10° N 04:13:13 53° WNW 04:16:16 24° SW visible
26 Jun 2.0 03:43:23 10° NNE 03:48:43 89° WNW 03:51:22 31° SSW visible
27 Jun 2.6 03:18:55 10° NNE 03:24:09 54° E 03:26:30 31° SSE visible
27 Jun 3.8 04:59:53 10° NNW 05:03:31 19° WNW 05:07:08 10° WSW visible
28 Jun 3.4 02:54:45 10° NE 02:59:28 32° E 03:01:36 24° SE visible
28 Jun 3.2 04:34:36 10° N 04:39:12 31° WNW 04:42:41 15° WSW visible
29 Jun 4.1 02:31:02 10° NE 02:34:43 19° E 02:36:43 15° ESE visible
29 Jun 2.5 04:09:40 10° N 04:14:48 51° WNW 04:17:48 24° SW visible
30 Jun 4.6 02:09:04 10° E 02:09:51 10° E 02:10:39 10° E visible
30 Jun 2.0 03:44:58 10° NNE 03:50:19 86° WNW 03:52:53 32° SSW visible
01 Jul 2.5 03:20:30 10° NNE 03:25:44 56° E 03:28:00 32° SSE visible
01 Jul 3.8 05:01:34 10° NNW 05:05:06 18° WNW 05:08:36 10° WSW visible
02 Jul 3.3 02:56:19 10° NNE 03:01:05 33° E 03:03:06 25° SE visible
02 Jul 3.2 04:36:15 10° N 04:40:47 29° WNW 04:44:11 15° WSW visible
03 Jul 4.0 02:32:33 10° NE 02:36:19 20° E 02:38:13 16° ESE visible
03 Jul 2.5 04:11:17 10° N 04:16:24 49° WNW 04:19:17 24° SW visible
